Burlington, CO

2:57 AM MDT on August 28, 2016 (GMT -0600)
Kit Carson County

Weather History for KITR - December, 2013

Change the Weather History Date:

Monday, December 23, 2013

  Actual Average Record
Temperature  
Mean Temperature 25 °F 28 °F  
Max Temperature 35 °F 41 °F 78 °F (1964)
Min Temperature 14 °F 15 °F -16 °F (1990)
Degree Days  
Heating Degree Days 40    
Moisture  
Dew Point 13 °F    
Average Humidity 80    
Maximum Humidity 92    
Minimum Humidity 46    
Precipitation  
Precipitation T in 0.02 in 0.60 in (1918)
Month to date precipitation T 0.35  
Year to date precipitation 16.71 17.38  
Sea Level Pressure  
Sea Level Pressure 30.33 in    
Wind  
Wind Speed 16 mph (NNE)    
Max Wind Speed 23 mph    
Max Gust Speed -    
Visibility 7 miles    
Events Snow    
T = Trace of Precipitation, MM = Missing Value Source: NWS Daily Summary

Daily Weather History Graph

Daily Weather History Graph

Search for Another Location

Airport or City:

Trip Planner

Search our weather history database for the weather conditions in past years. The results will help you decide how hot, cold, wet, or windy it might be!

Date:

Astronomy

Dec. 23, 2013 Rise Set
Actual Time 7:06 AM MST 4:30 PM MST
Civil Twilight 6:36 AM MST 5:00 PM MST
Nautical Twilight 6:02 AM MST 5:34 PM MST
Astronomical Twilight 5:29 AM MST 6:07 PM MST
Moon 10:40 PM MST (12/23) 10:34 AM MST (12/23)
Length of Visible Light 10h 24m
Length of Day
9h 24m
Waning Gibbous, 67% of the Moon is Illuminated
Dec 23
Waning Gibbous
Dec 25
Last Quarter
Jan 1
New
Jan 7
First Quarter
Jan 15
Full

Hourly Weather History & Observations

Time (MST) Temp. Windchill Dew Point Humidity Pressure Visibility Wind Dir Wind Speed Gust Speed Precip Events Conditions
12:26 AM 19.9 °F 5.2 °F 16.0 °F 85% 30.16 in 10.0 mi NNE 17.3 mph - N/A   Overcast
12:41 AM 19.0 °F 5.0 °F 16.0 °F 88% 30.17 in 6.0 mi NE 15.0 mph - 0.00 in Snow Light Snow
12:53 AM 19.9 °F 5.7 °F 16.0 °F 85% 30.26 in 6.0 mi NNE 16.1 mph - 0.00 in Snow Light Snow
1:04 AM 19.9 °F 3.2 °F 16.0 °F 85% 30.20 in 5.0 mi NNE 23.0 mph - 0.00 in Snow Light Snow
1:49 AM 15.8 °F -2.3 °F 12.2 °F 86% 30.23 in 2.5 mi NNE 23.0 mph - 0.00 in Snow Light Snow
1:53 AM 16.0 °F 0.6 °F 12.9 °F 88% 30.32 in 4.0 mi NNE 16.1 mph - 0.00 in Snow Light Snow
2:06 AM 16.0 °F -2.1 °F 12.9 °F 88% 30.23 in 2.5 mi NNE 23.0 mph - 0.00 in Snow Light Snow
2:16 AM 16.0 °F -1.3 °F 12.0 °F 84% 30.24 in 1.5 mi NNE 20.7 mph - 0.00 in Snow Light Snow
2:28 AM 16.0 °F 0.6 °F 12.0 °F 84% 30.25 in 2.0 mi NNE 16.1 mph - 0.00 in Snow Light Snow
2:43 AM 15.1 °F -1.1 °F 12.0 °F 88% 30.26 in 4.0 mi NNE 17.3 mph - 0.00 in Snow Light Snow
2:53 AM 16.0 °F -0.4 °F 12.0 °F 84% 30.35 in 4.0 mi NNE 18.4 mph - 0.00 in Snow Light Snow
3:05 AM 16.0 °F -0.4 °F 12.0 °F 84% 30.26 in 2.5 mi NNE 18.4 mph - 0.00 in Snow Light Snow
3:23 AM 15.1 °F -0.1 °F 12.9 °F 91% 30.27 in 5.0 mi NNE 15.0 mph - 0.00 in Snow Light Snow
3:30 AM 15.1 °F -0.6 °F 12.9 °F 91% 30.27 in 6.0 mi NNE 16.1 mph - 0.00 in   Overcast
3:37 AM 15.1 °F 1.1 °F 12.9 °F 91% 30.27 in 7.0 mi NNE 12.7 mph - 0.00 in   Overcast
3:53 AM 15.1 °F -0.6 °F 12.0 °F 88% 30.38 in 8.0 mi NNE 16.1 mph - 0.00 in   Overcast
4:11 AM 15.1 °F 1.1 °F 12.0 °F 88% 30.28 in 8.0 mi NNE 12.7 mph - N/A   Overcast
4:22 AM 15.1 °F 2.5 °F 12.0 °F 88% 30.28 in 9.0 mi NE 10.4 mph - N/A   Overcast
4:53 AM 15.1 °F 2.5 °F 12.0 °F 88% 30.41 in 8.0 mi NNE 10.4 mph - N/A   Overcast
5:51 AM 15.8 °F 6.1 °F 12.2 °F 86% 30.30 in 2.5 mi NNE 6.9 mph - N/A   Overcast
5:53 AM 15.1 °F 4.2 °F 12.0 °F 88% 30.42 in 2.5 mi NE 8.1 mph - N/A   Overcast
6:05 AM 15.1 °F 5.2 °F 12.0 °F 88% 30.30 in 4.0 mi NE 6.9 mph - N/A   Overcast
6:20 AM 15.1 °F 5.2 °F 12.0 °F 88% 30.31 in 2.5 mi NNE 6.9 mph - N/A   Overcast
6:53 AM 15.1 °F 7.7 °F 12.0 °F 88% 30.44 in 4.0 mi NE 4.6 mph - N/A   Overcast
7:53 AM 15.1 °F 9.4 °F 12.0 °F 88% 30.46 in 6.0 mi East 3.5 mph - N/A   Overcast
8:53 AM 16.0 °F 4.4 °F 12.9 °F 88% 30.49 in 7.0 mi SSW 9.2 mph - N/A   Overcast
9:10 AM 16.0 °F 2.9 °F 12.9 °F 88% 30.37 in 7.0 mi SSW 11.5 mph - N/A   Overcast
9:38 AM 17.1 °F 3.6 °F 15.1 °F 92% 30.37 in 9.0 mi SSW 12.7 mph - N/A   Overcast
9:53 AM 18.0 °F 3.6 °F 14.0 °F 84% 30.49 in 9.0 mi SSW 15.0 mph - N/A   Overcast
10:53 AM 19.9 °F 5.2 °F 16.0 °F 85% 30.46 in 10.0 mi SSW 17.3 mph - N/A   Overcast
11:15 AM 21.9 °F 8.2 °F 17.1 °F 82% 30.34 in 10.0 mi SW 16.1 mph - N/A   Scattered Clouds
11:53 AM 25.0 °F 10.9 °F 18.0 °F 75% 30.43 in 10.0 mi SW 19.6 mph - N/A   Mostly Cloudy
12:53 PM 28.0 °F 15.3 °F 17.1 °F 63% 30.39 in 10.0 mi SW 18.4 mph - N/A   Partly Cloudy
1:53 PM 33.1 °F 21.5 °F 17.1 °F 52% 30.36 in 10.0 mi SW 19.6 mph - N/A   Clear
2:53 PM 34.0 °F 21.8 °F 15.1 °F 46% 30.35 in 10.0 mi SW 23.0 mph - N/A   Clear
3:53 PM 32.0 °F 21.6 °F 15.1 °F 50% 30.35 in 10.0 mi SW 15.0 mph - N/A   Clear
4:53 PM 25.0 °F 14.8 °F 12.9 °F 60% 30.37 in 10.0 mi SSW 10.4 mph - N/A   Clear
5:53 PM 21.9 °F 9.2 °F 12.0 °F 66% 30.37 in 10.0 mi SSW 13.8 mph - N/A   Clear
6:53 PM 19.9 °F 6.7 °F 10.9 °F 68% 30.37 in 10.0 mi SSW 13.8 mph - N/A   Clear
7:53 PM 19.9 °F 6.7 °F 12.0 °F 71% 30.35 in 10.0 mi SSW 13.8 mph - N/A   Clear
8:53 PM 19.9 °F 6.2 °F 12.9 °F 74% 30.34 in 10.0 mi SSW 15.0 mph - N/A   Clear
9:53 PM 19.9 °F 7.9 °F 12.9 °F 74% 30.31 in 10.0 mi SSW 11.5 mph - N/A   Clear
10:53 PM 23.0 °F 11.1 °F 14.0 °F 68% 30.26 in 10.0 mi West 12.7 mph - N/A   Clear
11:53 PM 24.1 °F 12.5 °F 15.1 °F 69% 30.22 in 10.0 mi WSW 12.7 mph - N/A   Clear